Location: Hemaruka
(51.7801°N, 111.0917°W)
Time: 14:21:12
(UTC+00:00)

Envisat - Pass Details

Date: 02 June 2023
Orbit: 763 x 764 km, 98.2° (Epoch: 26 September)

Event Time Altitude Azimuth Distance (km) Brightness Sun altitude
Rises 09:43:48 0° 30° (NNE) 3,241 8.6 -9.8°
Reaches altitude 10° 09:47:39 10° 59° (ENE) 2,308 6.6 -9.5°
Maximum altitude 09:49:45 12° 84° (E) 2,136 5.9 -9.3°
Drops below altitude 10° 09:51:51 10° 109° (ESE) 2,301 5.7 -9.1°
Sets 09:55:39 0° 138° (SE) 3,220 6.1 -8.8°
